WMT350 LOWW-EDDK

Flight info

Callsign WMT350
Flight time 1h 13m
Altitude 38000
Route BUWUT1C BUWUT DCT DITIS DCT RAPET T843 DEMAB T842 EBANA T841 ERNEP ERNEP2C
Aircraft A20N/M-SDE2E3FGHIRWXY/LB1

Departure

Time 2026-04-22 18:59
Airport Vienna International Airport (LOWW)

Arrival

Time 2026-04-22 20:13
Airport Cologne Bonn Airport (EDDK)
Time Latitude Longitude Altitude Speed Heading
2026-04-22 18:03 48.11778 16.56185 597 ft 0 kts 338°
2026-04-22 18:47 48.11775 16.56187 597 ft 1 kts 338°
2026-04-22 18:47 48.11763 16.56194 597 ft 2 kts 338°
2026-04-22 18:47 48.11749 16.56202 597 ft 2 kts 338°
2026-04-22 18:47 48.11736 16.56210 597 ft 2 kts 341°
2026-04-22 18:48 48.11721 16.56217 597 ft 2 kts 343°
2026-04-22 18:48 48.11707 16.56223 597 ft 2 kts 346°
2026-04-22 18:48 48.11692 16.56228 598 ft 2 kts 351°
2026-04-22 18:48 48.11678 16.56231 598 ft 2 kts 357°
2026-04-22 18:49 48.11676 16.56231 598 ft 0 kts 359°
2026-04-22 18:49 48.11677 16.56231 598 ft 0 kts
2026-04-22 18:50 48.11677 16.56232 598 ft 0 kts
2026-04-22 18:50 48.11671 16.56231 598 ft 1 kts
2026-04-22 18:50 48.11664 16.56229 598 ft 1 kts 15°
2026-04-22 18:51 48.11657 16.56226 598 ft 1 kts 21°
2026-04-22 18:51 48.11653 16.56224 598 ft 2 kts 29°
2026-04-22 18:51 48.11645 16.56213 598 ft 0 kts 82°
2026-04-22 18:52 48.11645 16.56220 598 ft 2 kts 89°
2026-04-22 18:52 48.11643 16.56229 598 ft 0 kts 112°
2026-04-22 18:53 48.11634 16.56257 598 ft 7 kts 117°
2026-04-22 18:53 48.11605 16.56341 599 ft 0 kts 118°
2026-04-22 18:53 48.11595 16.56362 599 ft 5 kts 131°
2026-04-22 18:54 48.11557 16.56362 599 ft 7 kts 216°
2026-04-22 18:54 48.11507 16.56392 598 ft 11 kts 139°
2026-04-22 18:54 48.11451 16.56538 599 ft 20 kts 116°
2026-04-22 18:54 48.11392 16.56723 601 ft 17 kts 117°
2026-04-22 18:55 48.11348 16.56851 603 ft 0 kts 117°
2026-04-22 18:55 48.11342 16.56871 611 ft 6 kts 116°
2026-04-22 18:55 48.11315 16.56950 608 ft 10 kts 116°
2026-04-22 18:55 48.11280 16.57060 611 ft 13 kts 116°
2026-04-22 18:56 48.11249 16.57156 616 ft 6 kts 116°
2026-04-22 18:56 48.11233 16.57204 613 ft 5 kts 118°
2026-04-22 18:56 48.11212 16.57266 618 ft 9 kts 116°
2026-04-22 18:56 48.11168 16.57400 604 ft 21 kts 116°
2026-04-22 18:57 48.11103 16.57526 603 ft 11 kts 168°
2026-04-22 18:57 48.11030 16.57494 605 ft 12 kts 203°
2026-04-22 18:57 48.10967 16.57415 614 ft 13 kts 250°
2026-04-22 18:57 48.10973 16.57353 614 ft 0 kts 291°
2026-04-22 18:58 48.10973 16.57351 613 ft 1 kts 291°
2026-04-22 18:58 48.11013 16.57231 616 ft 39 kts 297°
2026-04-22 18:59 48.11229 16.56562 616 ft 101 kts 296°
2026-04-22 18:59 48.11613 16.55395 596 ft 146 kts 296°
2026-04-22 18:59 48.12107 16.53876 777 ft 169 kts 296°
2026-04-22 18:59 48.12610 16.52250 1246 ft 177 kts 285°
2026-04-22 19:00 48.12543 16.50458 1895 ft 170 kts 243°
2026-04-22 19:00 48.11724 16.49225 2493 ft 176 kts 207°
2026-04-22 19:00 48.10520 16.48601 2926 ft 196 kts 196°
2026-04-22 19:00 48.09154 16.47969 3455 ft 213 kts 200°
2026-04-22 19:01 48.07836 16.46873 4219 ft 218 kts 225°
2026-04-22 19:01 48.07017 16.45019 5141 ft 220 kts 245°
2026-04-22 19:01 48.06358 16.42854 5784 ft 240 kts 246°
2026-04-22 19:01 48.05649 16.40474 6351 ft 261 kts 246°
2026-04-22 19:02 48.04889 16.37920 7084 ft 273 kts 246°
2026-04-22 19:02 48.04109 16.35312 8067 ft 277 kts 246°
2026-04-22 19:02 48.03497 16.32567 9002 ft 281 kts 259°
2026-04-22 19:02 48.03359 16.29641 9922 ft 285 kts 274°
2026-04-22 19:03 48.03506 16.26596 10490 ft 304 kts 274°
2026-04-22 19:03 48.03712 16.23378 10817 ft 328 kts 279°
2026-04-22 19:03 48.04363 16.20047 11393 ft 340 kts 295°
2026-04-22 19:03 48.05420 16.16868 12240 ft 344 kts 296°
2026-04-22 19:04 48.06502 16.13649 13066 ft 348 kts 297°
2026-04-22 19:04 48.07610 16.10408 13878 ft 352 kts 297°
2026-04-22 19:04 48.08743 16.07140 14638 ft 357 kts 297°
2026-04-22 19:04 48.09899 16.03829 15372 ft 361 kts 297°
2026-04-22 19:05 48.11070 16.00482 16125 ft 365 kts 297°
2026-04-22 19:05 48.12326 15.97159 16811 ft 369 kts 306°
2026-04-22 19:05 48.14096 15.94356 17492 ft 373 kts 322°
2026-04-22 19:05 48.16020 15.92598 18094 ft 376 kts 336°
2026-04-22 19:06 48.18424 15.91135 18719 ft 381 kts 338°
2026-04-22 19:06 48.20895 15.89661 19402 ft 383 kts 338°
2026-04-22 19:06 48.23384 15.88173 20016 ft 388 kts 338°
2026-04-22 19:07 48.28436 15.85132 21240 ft 394 kts 338°
2026-04-22 19:07 48.30989 15.83589 21813 ft 398 kts 338°
2026-04-22 19:07 48.33564 15.82029 22382 ft 401 kts 338°
2026-04-22 19:07 48.36177 15.80445 22942 ft 405 kts 338°
2026-04-22 19:08 48.38798 15.78853 23478 ft 408 kts 338°
2026-04-22 19:08 48.41439 15.77248 24005 ft 412 kts 338°
2026-04-22 19:08 48.44110 15.75623 24519 ft 415 kts 338°
2026-04-22 19:08 48.46792 15.73989 25004 ft 418 kts 338°
2026-04-22 19:09 48.48587 15.72894 25324 ft 421 kts 338°
2026-04-22 19:09 48.51293 15.71179 25765 ft 424 kts 333°
2026-04-22 19:09 48.53753 15.68715 26214 ft 426 kts 319°
2026-04-22 19:09 48.56496 15.64442 26790 ft 430 kts 311°
2026-04-22 19:10 48.58471 15.61025 27183 ft 434 kts 311°
2026-04-22 19:10 48.60493 15.57617 27595 ft 437 kts 312°
2026-04-22 19:10 48.62568 15.54253 27989 ft 439 kts 313°
2026-04-22 19:10 48.63964 15.52041 28246 ft 441 kts 314°
2026-04-22 19:11 48.66107 15.48689 28605 ft 444 kts 314°
2026-04-22 19:11 48.68263 15.45337 28975 ft 446 kts 314°
2026-04-22 19:11 48.70434 15.41966 29279 ft 449 kts 314°
2026-04-22 19:11 48.72619 15.38568 29607 ft 451 kts 314°
2026-04-22 19:12 48.74809 15.35156 29946 ft 454 kts 314°
2026-04-22 19:12 48.77021 15.31704 30283 ft 456 kts 314°
2026-04-22 19:12 48.79234 15.28243 30599 ft 458 kts 314°
2026-04-22 19:12 48.81453 15.24769 30934 ft 460 kts 314°
2026-04-22 19:13 48.83687 15.21266 31279 ft 462 kts 314°
2026-04-22 19:13 48.85920 15.17760 31689 ft 461 kts 314°
2026-04-22 19:13 48.88139 15.14273 32090 ft 461 kts 314°
2026-04-22 19:13 48.90253 15.10692 32495 ft 460 kts 308°
2026-04-22 19:14 48.92162 15.06807 32881 ft 459 kts 306°
2026-04-22 19:14 48.94051 15.02921 33265 ft 458 kts 306°
2026-04-22 19:14 48.95953 14.99034 33632 ft 457 kts 306°
2026-04-22 19:14 48.97839 14.95179 33994 ft 456 kts 306°
2026-04-22 19:15 48.99098 14.92601 34231 ft 455 kts 306°
2026-04-22 19:15 49.01618 14.87425 34668 ft 454 kts 306°
2026-04-22 19:15 49.03495 14.83560 34986 ft 453 kts 306°
2026-04-22 19:15 49.05368 14.79694 35289 ft 453 kts 306°
2026-04-22 19:16 49.07235 14.75835 35579 ft 452 kts 306°
2026-04-22 19:16 49.09072 14.72033 35851 ft 451 kts 306°
2026-04-22 19:16 49.10933 14.68176 35998 ft 451 kts 306°
2026-04-22 19:17 49.14636 14.60482 35996 ft 449 kts 306°
2026-04-22 19:17 49.18336 14.52773 36002 ft 450 kts 306°
2026-04-22 19:18 49.22031 14.45052 36004 ft 449 kts 306°
2026-04-22 19:18 49.25715 14.37332 35999 ft 449 kts 306°
2026-04-22 19:19 49.29158 14.30097 36002 ft 449 kts 306°
2026-04-22 19:19 49.32841 14.22337 36004 ft 450 kts 306°
2026-04-22 19:20 49.36517 14.14568 35996 ft 449 kts 306°
2026-04-22 19:20 49.40178 14.06808 36002 ft 450 kts 306°
2026-04-22 19:21 49.43846 13.99011 36004 ft 450 kts 306°
2026-04-22 19:21 49.47473 13.91279 36000 ft 450 kts 306°
2026-04-22 19:22 49.51133 13.83452 35999 ft 450 kts 305°
2026-04-22 19:22 49.54775 13.75641 35996 ft 451 kts 305°
2026-04-22 19:23 49.58436 13.67767 36002 ft 450 kts 305°
2026-04-22 19:23 49.62073 13.59923 36000 ft 449 kts 305°
2026-04-22 19:24 49.65699 13.52076 36000 ft 449 kts 305°
2026-04-22 19:24 49.69295 13.44274 36001 ft 450 kts 305°
2026-04-22 19:25 49.72915 13.36395 36000 ft 448 kts 305°
2026-04-22 19:25 49.76524 13.28517 36027 ft 450 kts 305°
2026-04-22 19:25 49.78328 13.24571 36263 ft 450 kts 305°
2026-04-22 19:26 49.80121 13.20644 36483 ft 451 kts 305°
2026-04-22 19:26 49.81941 13.16650 36701 ft 451 kts 305°
2026-04-22 19:26 49.83744 13.12688 36910 ft 451 kts 305°
2026-04-22 19:26 49.85524 13.08771 37127 ft 451 kts 305°
2026-04-22 19:27 49.87326 13.04800 37325 ft 451 kts 305°
2026-04-22 19:27 49.89135 13.00806 37538 ft 451 kts 305°
2026-04-22 19:27 49.90933 12.96832 37730 ft 451 kts 305°
2026-04-22 19:27 49.92733 12.92846 37898 ft 451 kts 305°
2026-04-22 19:28 49.94530 12.88861 38001 ft 452 kts 304°
2026-04-22 19:28 49.98138 12.80843 38000 ft 451 kts 304°
2026-04-22 19:29 50.01731 12.72834 38000 ft 452 kts 304°
2026-04-22 19:29 50.05292 12.64872 38000 ft 452 kts 304°
2026-04-22 19:30 50.08296 12.58137 38000 ft 451 kts 304°
2026-04-22 19:30 50.12434 12.48830 37997 ft 449 kts 304°
2026-04-22 19:31 50.15961 12.40827 37983 ft 447 kts 302°
2026-04-22 19:31 50.18832 12.32242 38003 ft 447 kts 292°
2026-04-22 19:32 50.20745 12.23016 38000 ft 452 kts 283°
2026-04-22 19:32 50.22239 12.13506 38000 ft 450 kts 284°
2026-04-22 19:33 50.23740 12.04035 38000 ft 450 kts 283°
2026-04-22 19:33 50.25223 11.94533 38000 ft 450 kts 283°
2026-04-22 19:34 50.26701 11.85035 37998 ft 450 kts 283°
2026-04-22 19:34 50.28172 11.75524 37996 ft 449 kts 283°
2026-04-22 19:35 50.29622 11.66091 37993 ft 450 kts 283°
2026-04-22 19:35 50.31069 11.56593 37992 ft 449 kts 283°
2026-04-22 19:36 50.32486 11.47070 38001 ft 449 kts 283°
2026-04-22 19:36 50.33895 11.37538 37988 ft 449 kts 283°
2026-04-22 19:36 50.34594 11.32799 37773 ft 446 kts 283°
2026-04-22 19:37 50.35288 11.28077 37306 ft 444 kts 283°
2026-04-22 19:37 50.35979 11.23366 36679 ft 444 kts 283°
2026-04-22 19:37 50.36670 11.18644 35998 ft 444 kts 283°
2026-04-22 19:37 50.37377 11.14008 35314 ft 445 kts 284°
2026-04-22 19:38 50.38077 11.09285 34552 ft 446 kts 282°
2026-04-22 19:38 50.38732 11.04518 33813 ft 447 kts 282°
2026-04-22 19:38 50.39391 10.99752 33049 ft 449 kts 282°
2026-04-22 19:38 50.40068 10.94969 32357 ft 448 kts 282°
2026-04-22 19:39 50.40753 10.90210 32090 ft 450 kts 283°
2026-04-22 19:39 50.42155 10.80526 31983 ft 456 kts 283°
2026-04-22 19:39 50.42854 10.75693 31699 ft 453 kts 283°
2026-04-22 19:40 50.43527 10.71026 31111 ft 452 kts 282°
2026-04-22 19:40 50.44229 10.66160 30335 ft 453 kts 283°
2026-04-22 19:40 50.44916 10.61404 29696 ft 450 kts 283°
2026-04-22 19:40 50.45604 10.56638 29095 ft 446 kts 282°
2026-04-22 19:41 50.46284 10.51912 28514 ft 441 kts 282°
2026-04-22 19:41 50.46954 10.47233 27915 ft 438 kts 282°
2026-04-22 19:41 50.47640 10.42602 27330 ft 433 kts 285°
2026-04-22 19:41 50.48698 10.38217 26716 ft 430 kts 297°
2026-04-22 19:42 50.50320 10.34325 26121 ft 426 kts 310°
2026-04-22 19:42 50.52287 10.30865 25549 ft 422 kts 312°
2026-04-22 19:42 50.54242 10.27473 25140 ft 415 kts 312°
2026-04-22 19:42 50.56183 10.24121 25020 ft 417 kts 312°
2026-04-22 19:43 50.60093 10.17380 25006 ft 420 kts 312°
2026-04-22 19:43 50.62056 10.13992 24994 ft 419 kts 312°
2026-04-22 19:43 50.64028 10.10585 25002 ft 420 kts 312°
2026-04-22 19:44 50.65996 10.07181 25000 ft 421 kts 312°
2026-04-22 19:44 50.67926 10.03838 24997 ft 420 kts 312°
2026-04-22 19:44 50.69709 10.00087 25007 ft 420 kts 301°
2026-04-22 19:44 50.71114 9.96075 24884 ft 416 kts 297°
2026-04-22 19:45 50.72424 9.92030 24495 ft 413 kts 297°
2026-04-22 19:45 50.73733 9.88013 24123 ft 409 kts 297°
2026-04-22 19:45 50.75063 9.84038 24013 ft 410 kts 298°
2026-04-22 19:45 50.76403 9.80110 23999 ft 413 kts 298°
2026-04-22 19:46 50.77776 9.76132 24000 ft 412 kts 298°
2026-04-22 19:46 50.79153 9.72155 24001 ft 413 kts 298°
2026-04-22 19:46 50.80528 9.68188 24000 ft 412 kts 298°
2026-04-22 19:46 50.81899 9.64224 24000 ft 411 kts 298°
2026-04-22 19:47 50.83274 9.60241 24000 ft 412 kts 298°
2026-04-22 19:47 50.84645 9.56261 23998 ft 412 kts 298°
2026-04-22 19:47 50.85987 9.52358 23821 ft 409 kts 298°
2026-04-22 19:47 50.87363 9.48353 23359 ft 407 kts 298°
2026-04-22 19:48 50.88690 9.44479 22830 ft 404 kts 298°
2026-04-22 19:48 50.90026 9.40577 22238 ft 402 kts 298°
2026-04-22 19:48 50.91349 9.36703 21692 ft 398 kts 298°
2026-04-22 19:48 50.92657 9.32872 21140 ft 394 kts 298°
2026-04-22 19:49 50.93953 9.29070 20597 ft 390 kts 298°
2026-04-22 19:49 50.95235 9.25302 20046 ft 387 kts 298°
2026-04-22 19:49 50.96505 9.21563 19489 ft 383 kts 298°
2026-04-22 19:49 50.97764 9.17850 18933 ft 380 kts 298°
2026-04-22 19:50 50.99010 9.14172 18360 ft 377 kts 298°
2026-04-22 19:50 51.00248 9.10511 17822 ft 374 kts 298°
2026-04-22 19:50 51.01474 9.06882 17221 ft 372 kts 298°
2026-04-22 19:50 51.02675 9.03321 16732 ft 369 kts 298°
2026-04-22 19:51 51.03878 8.99746 16162 ft 366 kts 298°
2026-04-22 19:51 51.05071 8.96200 15653 ft 363 kts 298°
2026-04-22 19:51 51.06254 8.92677 15116 ft 360 kts 298°
2026-04-22 19:51 51.07427 8.89179 14604 ft 357 kts 298°
2026-04-22 19:52 51.08588 8.85713 14080 ft 354 kts 298°
2026-04-22 19:52 51.09741 8.82264 13579 ft 351 kts 298°
2026-04-22 19:52 51.10878 8.78861 13163 ft 346 kts 297°
2026-04-22 19:52 51.12006 8.75481 13019 ft 348 kts 298°
2026-04-22 19:53 51.13136 8.72055 13000 ft 349 kts 295°
2026-04-22 19:53 51.13754 8.68360 13003 ft 349 kts 273°
2026-04-22 19:53 51.13551 8.64918 13001 ft 349 kts 254°
2026-04-22 19:53 51.12499 8.61411 13006 ft 350 kts 236°
2026-04-22 19:54 51.11043 8.58333 12905 ft 348 kts 231°
2026-04-22 19:54 51.09526 8.55324 12560 ft 347 kts 231°
2026-04-22 19:54 51.08051 8.52304 12076 ft 345 kts 233°
2026-04-22 19:54 51.06627 8.49259 11579 ft 342 kts 234°
2026-04-22 19:55 51.05247 8.46213 11062 ft 340 kts 234°
2026-04-22 19:55 51.03879 8.43147 10559 ft 337 kts 235°
2026-04-22 19:55 51.02554 8.40162 10168 ft 332 kts 235°
2026-04-22 19:55 51.01248 8.37218 10026 ft 318 kts 235°
2026-04-22 19:56 51.00006 8.34421 9997 ft 302 kts 235°
2026-04-22 19:56 50.98843 8.31808 9994 ft 286 kts 235°
2026-04-22 19:56 50.97777 8.29128 10000 ft 290 kts 247°
2026-04-22 19:56 50.97366 8.26021 9999 ft 289 kts 271°
2026-04-22 19:57 50.97616 8.22876 9998 ft 289 kts 279°
2026-04-22 19:57 50.97941 8.19710 10004 ft 289 kts 279°
2026-04-22 19:57 50.98258 8.16571 10004 ft 289 kts 279°
2026-04-22 19:57 50.98573 8.13413 9999 ft 289 kts 279°
2026-04-22 19:58 50.98880 8.10273 10001 ft 288 kts 278°
2026-04-22 19:58 50.99186 8.07128 9999 ft 289 kts 278°
2026-04-22 19:58 50.99491 8.03976 10002 ft 289 kts 278°
2026-04-22 19:58 50.99794 8.00825 9999 ft 289 kts 278°
2026-04-22 19:59 51.00092 7.97721 10001 ft 289 kts 278°
2026-04-22 20:00 51.01887 7.78836 10000 ft 289 kts 278°
2026-04-22 20:00 51.02186 7.75671 9996 ft 288 kts 278°
2026-04-22 20:01 51.02482 7.72525 10003 ft 289 kts 278°
2026-04-22 20:01 51.02778 7.69372 10002 ft 288 kts 278°
2026-04-22 20:01 51.03070 7.66226 9999 ft 288 kts 278°
2026-04-22 20:01 51.03359 7.63118 10000 ft 288 kts 278°
2026-04-22 20:02 51.03651 7.59967 9999 ft 288 kts 278°
2026-04-22 20:02 51.03941 7.56825 9999 ft 288 kts 278°
2026-04-22 20:02 51.04230 7.53689 9997 ft 288 kts 278°
2026-04-22 20:02 51.04517 7.50557 9942 ft 283 kts 278°
2026-04-22 20:03 51.04796 7.47515 9856 ft 273 kts 278°
2026-04-22 20:03 51.05063 7.44593 9768 ft 261 kts 278°
2026-04-22 20:03 51.05317 7.41814 9616 ft 252 kts 278°
2026-04-22 20:03 51.05569 7.39048 9302 ft 251 kts 278°
2026-04-22 20:04 51.05816 7.36320 8974 ft 250 kts 278°
2026-04-22 20:04 51.06063 7.33590 8643 ft 249 kts 278°
2026-04-22 20:04 51.06307 7.30877 8332 ft 247 kts 278°
2026-04-22 20:04 51.06550 7.28178 8012 ft 246 kts 278°
2026-04-22 20:05 51.06788 7.25524 7704 ft 245 kts 278°
2026-04-22 20:05 51.07027 7.22852 7390 ft 244 kts 278°
2026-04-22 20:05 51.07265 7.20187 7085 ft 243 kts 278°
2026-04-22 20:05 51.07500 7.17539 6772 ft 242 kts 278°
2026-04-22 20:06 51.07734 7.14897 6478 ft 240 kts 278°
2026-04-22 20:06 51.07877 7.12262 6187 ft 239 kts 268°
2026-04-22 20:06 51.07774 7.09622 5907 ft 238 kts 266°
2026-04-22 20:06 51.07670 7.07003 5620 ft 237 kts 266°
2026-04-22 20:07 51.07575 7.04393 5395 ft 234 kts 267°
2026-04-22 20:07 51.07484 7.01864 5297 ft 224 kts 266°
2026-04-22 20:07 51.07396 6.99453 5221 ft 214 kts 266°
2026-04-22 20:07 51.07077 6.97198 5052 ft 208 kts 244°
2026-04-22 20:08 51.06236 6.95372 4825 ft 208 kts 226°
2026-04-22 20:08 51.05245 6.93723 4639 ft 203 kts 227°
2026-04-22 20:08 51.04261 6.92052 4650 ft 210 kts 227°
2026-04-22 20:08 51.03268 6.90366 4647 ft 207 kts 224°
2026-04-22 20:09 51.02025 6.89188 4389 ft 216 kts 197°
2026-04-22 20:09 51.00555 6.89102 4157 ft 214 kts 164°
2026-04-22 20:09 50.99311 6.90319 3916 ft 212 kts 130°
2026-04-22 20:09 50.98563 6.92361 3519 ft 220 kts 112°
2026-04-22 20:10 50.97981 6.94525 3610 ft 199 kts 113°
2026-04-22 20:10 50.97448 6.96507 3728 ft 194 kts 113°
2026-04-22 20:10 50.96928 6.98439 3606 ft 191 kts 113°
2026-04-22 20:10 50.96383 7.00380 3298 ft 194 kts 122°
2026-04-22 20:11 50.95457 7.01820 3089 ft 188 kts 148°
2026-04-22 20:11 50.94282 7.02862 2590 ft 200 kts 154°
2026-04-22 20:11 50.93060 7.03828 2461 ft 193 kts 148°
2026-04-22 20:11 50.91966 7.05050 2035 ft 194 kts 142°
2026-04-22 20:12 50.90964 7.06402 1827 ft 184 kts 137°
2026-04-22 20:12 50.90048 7.07779 1418 ft 186 kts 136°
2026-04-22 20:12 50.89451 7.08674 1132 ft 187 kts 137°
2026-04-22 20:12 50.88173 7.10492 621 ft 184 kts 137°
2026-04-22 20:13 50.87279 7.11796 360 ft 172 kts 136°
2026-04-22 20:13 50.86440 7.13017 255 ft 145 kts 139°
2026-04-22 20:13 50.85968 7.13704 263 ft 31 kts 137°
2026-04-22 20:13 50.85894 7.13807 269 ft 14 kts 151°
2026-04-22 20:14 50.85817 7.13757 267 ft 0 kts 243°
2026-04-22 20:14 50.85809 7.13719 267 ft 10 kts 254°
2026-04-22 20:14 50.85805 7.13700 267 ft 0 kts 253°
2026-04-22 20:15 50.85805 7.13640 266 ft 15 kts 272°
2026-04-22 20:15 50.85832 7.13433 259 ft 23 kts 283°
2026-04-22 20:15 50.85871 7.13178 253 ft 26 kts 283°
2026-04-22 20:15 50.85902 7.12957 248 ft 22 kts 282°
2026-04-22 20:16 50.85927 7.12795 246 ft 13 kts 283°
2026-04-22 20:16 50.85952 7.12632 244 ft 18 kts 283°
2026-04-22 20:16 50.85961 7.12572 243 ft 2 kts 284°
2026-04-22 20:16 50.85971 7.12507 244 ft 8 kts 283°
2026-04-22 20:17 50.86005 7.12418 244 ft 11 kts 333°
2026-04-22 20:17 50.86031 7.12404 244 ft 0 kts 343°
2026-04-22 20:17 50.86256 7.12325 239 ft 1 kts 344°
2026-04-22 20:17 50.86294 7.12309 236 ft 11 kts 346°
2026-04-22 20:18 50.86405 7.12267 233 ft 23 kts 347°
2026-04-22 20:18 50.86588 7.12190 232 ft 29 kts 346°
2026-04-22 20:18 50.86785 7.12107 236 ft 28 kts 347°
2026-04-22 20:18 50.86813 7.12098 234 ft 0 kts 345°
2026-04-22 20:19 50.86823 7.12093 236 ft 6 kts 345°
2026-04-22 20:19 50.86906 7.12061 234 ft 9 kts 347°
2026-04-22 20:19 50.86908 7.12061 234 ft 0 kts 347°
2026-04-22 20:20 50.86909 7.12060 234 ft 1 kts 347°
2026-04-22 20:20 50.86930 7.12053 233 ft 6 kts 349°
2026-04-22 20:21 50.87017 7.12058 235 ft 20 kts 15°
2026-04-22 20:21 50.87123 7.12190 238 ft 0 kts 49°
2026-04-22 20:21 50.87144 7.12242 235 ft 11 kts 67°
2026-04-22 20:21 50.87139 7.12340 238 ft 0 kts 112°
2026-04-22 20:22 50.87139 7.12343 238 ft 1 kts 110°
2026-04-22 20:22 50.87156 7.12375 238 ft 8 kts 17°
2026-04-22 20:23 50.87223 7.12305 232 ft 16 kts 337°
2026-04-22 20:23 50.87355 7.12340 227 ft 23 kts 17°
2026-04-22 20:23 50.87512 7.12417 227 ft 24 kts 17°
2026-04-22 20:23 50.87671 7.12499 232 ft 24 kts 18°
2026-04-22 20:24 50.87831 7.12580 235 ft 25 kts 18°
2026-04-22 20:24 50.87879 7.12605 239 ft 1 kts 15°
2026-04-22 20:24 50.87924 7.12596 238 ft 13 kts 333°
2026-04-22 20:24 50.88029 7.12451 238 ft 25 kts 316°
2026-04-22 20:25 50.88090 7.12331 238 ft 2 kts 296°
2026-04-22 20:25 50.88102 7.12295 237 ft 0 kts 297°
2026-04-22 20:25 50.88103 7.12290 237 ft 0 kts 297°
2026-04-22 20:26 50.88106 7.12282 236 ft 5 kts 297°
2026-04-22 20:26 50.88124 7.12212 235 ft 3 kts 274°
2026-04-22 20:26 50.88096 7.12147 232 ft 11 kts 233°
2026-04-22 20:27 50.88080 7.12118 231 ft 0 kts 226°